Flag for Turkey

Past Weather in Kemer, Turkey — Yesterday and Last 2 Weeks

Now
86 °F

Sunny.


Feels Like: 84 °F
Forecast: 88 / 74 °F
Wind: 13 mph from Northwest

Location: Antalya Airport
Current Time: Sep 29, 2020 at 8:46:48 am
Latest Report: Sep 29, 2020 at 7:50 am
Visibility: 10 mi
Pressure29.95 "Hg
Humidity: 31%
Dew Point: 52 °F
Location of KemerLocation

Past Weather in Kemer — Graph

°F

Kemer Temperature Yesterday

Maximum temperature yesterday: 90 °F (at 12:20 pm)
Minimum temperature yesterday: 70 °F (at 5:50 am)
Average temperature yesterday: 80 °F

High & Low Weather Summary for the Past Weeks

 TemperatureHumidityPressure
High102 °F (Sep 16, 1:20 pm)94% (Sep 17, 11:20 pm)30.04 "Hg (Sep 17, 11:20 pm)
Low70 °F (Sep 28, 5:50 am)17% (Sep 16, 12:20 pm)29.74 "Hg (Sep 25, 3:50 pm)
Average82 °F63%29.86 "Hg
* Reported Sep 14 7:20 am — Sep 29 7:20 am, Kemer. Weather by CustomWeather, © 2020

Note: Actual official high and low records may vary slightly from our data, if they occured in-between our weather recording intervals... More about our weather records

Kemer Weather History for the Previous 24 Hours

Scroll right to see more
 ConditionsComfort  
Time TempWeatherWind HumidityBarometerVisibility
7:20 am
Tue, Sep 29
84 °FSunny.16 mph33%29.95 "Hg10 mi
6:50 am84 °FSunny.13 mph33%29.95 "Hg10 mi
6:20 am84 °FClear.13 mph33%29.95 "Hg10 mi
5:50 am86 °FClear.15 mph31%29.95 "Hg10 mi
5:20 am82 °FClear.14 mph35%29.95 "Hg10 mi
4:50 am82 °FClear.14 mph35%29.95 "Hg10 mi
4:20 am81 °FClear.13 mph39%29.95 "Hg10 mi
3:50 am79 °FClear.10 mph42%29.95 "Hg10 mi
3:20 am81 °FClear.9 mph37%29.98 "Hg10 mi
2:50 am81 °FClear.9 mph39%29.98 "Hg10 mi
2:20 am84 °FClear.10 mph33%29.98 "Hg10 mi
1:50 am82 °FClear.10 mph37%29.98 "Hg10 mi
1:20 am84 °FClear.12 mph35%29.98 "Hg10 mi
12:50 am79 °FClear.6 mph51%29.98 "Hg10 mi
12:20 am82 °FPassing clouds.8 mph40%29.98 "HgN/A
11:50 pm
Mon, Sep 28
79 °FPassing clouds.6 mph54%30.01 "HgN/A
11:20 pm79 °FClear.5 mph58%30.01 "Hg10 mi
10:50 pm79 °FClear.3 mph58%30.01 "Hg10 mi
10:20 pm79 °FClear.5 mph65%30.01 "Hg10 mi
9:50 pm79 °FClear.6 mph65%30.01 "Hg10 mi
9:20 pm79 °FClear.5 mph70%29.98 "Hg10 mi
8:50 pm79 °FClear.5 mph70%29.98 "Hg10 mi
8:20 pm79 °FClear.2 mph74%29.98 "Hg10 mi
7:50 pm81 °FClear.5 mph70%29.98 "Hg10 mi
7:20 pm82 °FClear.6 mph62%29.98 "Hg10 mi
6:50 pm84 °FClear.5 mph55%29.98 "Hg10 mi
6:20 pm86 °FPassing clouds.3 mph49%29.98 "HgN/A
5:50 pm88 °FPassing clouds.3 mph49%29.98 "HgN/A
5:20 pm88 °FPassing clouds.9 mph49%29.98 "HgN/A
4:50 pm90 °FPassing clouds.10 mph43%29.98 "HgN/A
4:20 pm90 °FPassing clouds.9 mph49%29.98 "HgN/A
3:50 pm90 °FPassing clouds.10 mph46%29.98 "HgN/A
2:50 pm90 °FPassing clouds.13 mph49%29.98 "HgN/A
2:20 pm90 °FSunny.13 mph46%30.01 "Hg10 mi
1:50 pm90 °FSunny.12 mph46%30.01 "Hg10 mi
1:20 pm90 °FSunny.12 mph41%30.01 "Hg10 mi
12:50 pm90 °FPassing clouds.9 mph46%30.01 "HgN/A
12:20 pm90 °FSunny.8 mph41%30.04 "Hg10 mi
11:50 am88 °FPassing clouds.8 mph43%30.04 "HgN/A
11:20 am86 °FSunny.7 mph49%30.04 "Hg10 mi
10:50 am86 °FPassing clouds.8 mph49%30.04 "HgN/A
10:20 am86 °FPassing clouds.6 mph46%30.04 "HgN/A
9:50 am84 °FSunny.6 mph40%30.04 "Hg10 mi
8:50 am81 °FPassing clouds.5 mph45%30.04 "HgN/A
8:20 am77 °FPassing clouds.3 mph51%30.04 "HgN/A
Weather by CustomWeather, © 2020

See weather overview